Regional Weather Roundup
Issued by NWS

Home | Current Version | Previous Version | Text Only | Print | Product List | Glossary On
Versions: 1 2 3 4 5 6 7 8 9 10 11 12 13 14 15 16 17 18 19 20 21 22 23 24 25 26 27 28 29 30 31 32 33 34 35 36 37 38 39 40 41 42 43 44 45 46 47 48 49 50
000
ASUS44 KFWD 231115
RWRTX
NORTH TEXAS HOURLY WEATHER ROUNDUP
NATIONAL WEATHER SERVICE FORT WORTH TX
500 AM CST FRI FEB 23 2018

NOTE: "FAIR" INDICATES FEW OR NO CLOUDS BELOW 12,000 FEET WITH NO
SIGNIFICANT WEATHER AND/OR OBSTRUCTIONS TO VISIBILITY.

TXZ118-119-231200-
DALLAS/FORT WORTH METROPLEX

CITY           SKY/WX    TMP DP  RH WIND       PRES   REMARKS
DFW AIRPORT    TSTM      41  39  93 N5        30.21S FOG     WCI  38
DALLAS LOVE    LGT RAIN  40  39  97 NE6       30.22F WCI  36
FTW MEACHAM    TSTM      39  38  96 NE8       30.19F FOG     WCI  33
DAL-EXECUTIVE  RAIN      40  39  97 NE6       30.21S FOG     WCI  36
FTW-ALLIANCE   CLOUDY    38  37  97 NE6       30.21S THUNDER WCI  33
FTW-NAS-JRB    CLOUDY    39  35  86 NE7       30.20F THUNDER FOG
FTW-SPINKS     CLOUDY    39  37  94 N3        30.22S FOG
ARLINGTON      CLOUDY    38  38 100 NE7       30.20F WCI  33
GRAND PRAIRIE  CLOUDY    39  39 100 NE7       30.22F WCI  34
MESQUITE       CLOUDY    40  40  97 N3        30.22F
LANCASTER      CLOUDY    40  39  96 N3        30.23F FOG
$$

TXZ091>094-102>105-117-120-121-131>134-231200-
NORTH CENTRAL TEXAS

CITY           SKY/WX    TMP DP  RH WIND       PRES   REMARKS
SHRMAN/DENISON FOG       36  36  99 CALM      30.24F THUNDER VSB 1
GAINESVILLE    FOG       34  33  97 CALM      30.24F VSB 3/4
BOWIE          DRZL/FOG  32  32  99 CALM      30.21R VSB 1/2
BRIDGEPORT     CLOUDY    35  35 100 CALM      30.23F FOG
DECATUR        FOG       34  33  97 CALM      30.19F VSB 1/2
DENTON         LGT RAIN  36  36 100 SE5       30.23F FOG     WCI  32
MCKINNEY       RAIN      39  39 100 SE3       30.25R FOG
BONHAM         TSTM      38  37  99 N6        30.22F FOG     WCI  33
GREENVILLE     CLOUDY    45  45 100 CALM      30.24S
ROCKWALL       CLOUDY    41  41 100 MISG      30.23F THUNDER FOG
TERRELL        CLOUDY    43  40  89 N7        30.22F WCI  39
WAXAHACHIE     LGT RAIN  40  40 100 NE5       30.22F WCI  36
CLEBURNE       CLOUDY    39  39 100 NE5       30.22R WCI  36
GRANBURY       CLOUDY    39  37  92 CALM      30.20F
$$

TXZ083>090-098>101-113>116-127>130-139>142-154-155-231200-
WESTERN NORTH TEXAS

CITY           SKY/WX    TMP DP  RH WIND       PRES   REMARKS
WICHITA FALLS  CLOUDY    33  32  96 CALM      30.19S FOG
WF-KICKAPOO    CLOUDY    33  33  99 S3        30.22R FOG
VERNON         CLOUDY    37  34  89 CALM      30.18R
ABILENE        FOG       33  33 100 NE3       30.14S VSB 1
ABILENE-DYESS  CLOUDY    34  34 100 CALM      30.14S FOG
GRAHAM           N/A     32  32  99 CALM      30.18F
BRECKENRIDGE   CLOUDY    35  35 100 CALM      30.18S THUNDER FOG
CISCO          CLOUDY    34  34 100 CALM      30.15S FOG
EASTLAND       CLOUDY    33  33  99 E6        30.16F THUNDER FOG
RANGER         CLOUDY    34  34 100 CALM      30.16F FOG
MINERAL WELLS  LGT RAIN  35  34  96 NE5       30.18F FOG     WCI  31
STEPHENVILLE   CLOUDY    37  36  93 CALM      30.19F
COMANCHE       CLOUDY    39  39 100 CALM      30.15F FOG
BROWNWOOD      FOG       39  39 100 CALM      30.13F VSB 3/4
COLEMAN        FOG       40  39  97 CALM      30.13F VSB 1
$$

TXZ143>147-156>162-174-175-231200-
CENTRAL TEXAS

CITY           SKY/WX    TMP DP  RH WIND       PRES   REMARKS
WACO           CLOUDY    41  39  93 NE5       30.21F FOG     WCI  38
WACO-MCGREGOR  CLOUDY    39  39 100 NE5       30.19F WCI  36
HILLSBORO      CLOUDY    41  41 100 E3        30.20F FOG
CORSICANA      LGT RAIN  42  42 100 NW9       30.23S FOG     WCI  37
MEXIA          CLOUDY    42  41  97 N7        30.20S FOG     WCI  37
HEARNE         FOG       44  44 100 CALM      30.19F VSB 3/4
CAMERON        CLOUDY    42  42  98 NW7       30.20S FOG     WCI  38
TEMPLE         CLOUDY    40  40 100 N8        30.19F FOG     WCI  34
KILLEEN        CLOUDY    40  40 100 E6        30.14F FOG     WCI  36
KILLEEN-SKYLRK CLOUDY    41  40  96 NE7       30.17F FOG     WCI  36
GATESVILLE     CLOUDY    41  41 100 CALM      30.18F FOG
HAMILTON       FOG       40  40 100 CALM      30.17S VSB 3/4
LAMPASAS       CLOUDY    40  39  99 CALM      30.14F FOG
$$

TXZ095>097-106>112-122>126-135>138-148>153-164>167-231200-
EAST TEXAS

CITY           SKY/WX    TMP DP  RH WIND       PRES   REMARKS
PARIS          RAIN      43  42  97 NW8       30.25S WCI  38
SULPHUR SPRNGS LGT RAIN  44  44 100 CALM      30.26F
MOUNT PLEASANT FAIR      46  46  99 N7        30.23S
GILMER         CLOUDY    47  47 100 CALM      30.20S
MINEOLA        CLOUDY    45  45 100 NW5       30.24R
TYLER          CLOUDY    48  48 100 NW7       30.20R
LONGVIEW       CLOUDY    51  51 100 E3        30.20S
MARSHALL       CLOUDY    51  49  93 CALM      30.24S
ATHENS         DRIZZLE   41  41 100 N3        30.20S
PALESTINE      CLOUDY    46  46 100 CALM      30.21S FOG
JACKSONVILLE   FOG       48  48 100 CALM      30.21S VSB 1/2
HENDERSON      CLOUDY    50  50 100 CALM      30.22S FOG
CENTER         FOG       54  52  95 N6        30.23R VSB 1
NACOGDOCHES    CLOUDY    52  52 100 CALM      30.21F FOG
LUFKIN         FOG       52  52 100 E3        30.19F VSB 1
$$

SUPPLEMENTAL OBSERVATIONS (NWS FORT WORTH AREA)

CITY           SKY/WX    TMP DP  RH WIND       PRES   REMARKS
DENISON DAM      N/A     37  36  93 S1          N/A
CADDO GRASSLND   N/A     39  37  93 N5          N/A  WCI  36
PAT MAYSE LAKE   N/A     41  39  93 SW3         N/A
GREENVILLE       N/A     43  41  93 N3          N/A
CEDAR HILL       N/A     39  37  93 CALM        N/A
LBJ GRASSLAND    N/A     34  32  93 NE2         N/A
GRANBURY         N/A     37  36  93 N3          N/A
COMANCHE         N/A     39  37  93 E3          N/A
MCGREGOR         N/A     39  36  87 NE7         N/A  WCI  34
TEMPLE           N/A     41  39  93 NE8         N/A  WCI  36
LAKE LIMESTONE   N/A     45  43  93 N6          N/A
ATHENS           N/A     45  43  93 NW5         N/A
$$

SUPPLEMENTAL OBSERVATIONS (NWS NORMAN AREA)

CITY           SKY/WX    TMP DP  RH WIND       PRES   REMARKS
GOODLETT         N/A     36  35  97 W9        30.14F WCI  29
ODELL            N/A     35  35 100 W5        30.18R WCI  30
CROWELL          N/A     36  36  99 SW3       30.17R
KNOX CITY        N/A     36  35  93 CALM      30.17S
SEYMOUR          N/A     33  33  99 SE1       30.18R
MILLERS CREEK    N/A     34  32  93 SE1         N/A
$$

SUPPLEMENTAL OBSERVATIONS (NWS SAN ANGELO AREA)

CITY           SKY/WX    TMP DP  RH WIND       PRES   REMARKS
WEINERT          N/A     33  33  96 S1        30.16F
HASKELL          N/A     34  33  99 N2        30.15F
THROCKMORTON     N/A     32  32 100 SE3       30.19R
STAMFORD         N/A     33  33 100 E5        30.17S WCI  29
CLYDE            N/A     36  36 100 E1        30.13F
HAMBY            N/A     34  30  86 E2          N/A
IVIE RESERVOIR   N/A     39  37  93 NE2         N/A
COLORADO BEND    N/A     41  39  93 E7          N/A  WCI  36
$$

SUPPLEMENTAL OBSERVATIONS (NWS SHREVEPORT AREA)

CITY           SKY/WX    TMP DP  RH WIND       PRES   REMARKS
CLARKSVILLE      N/A     45  43  93 W3          N/A
TEXARKANA        N/A     48  46  93 CALM        N/A
LINDEN           N/A     50  48  93 NE1         N/A
CADDO LAKE       N/A     52  50  93 NW1         N/A
GILMER           N/A     48  46  93 CALM        N/A
HENDERSON        N/A     52  50  93 NE2         N/A
LUFKIN           N/A     52  50  93 MISG        N/A
N SABINE NF      N/A     57  55  94 MISG        N/A
S SABINE NF      N/A     64  63  94 E1          N/A
$$

SUPPLEMENTAL OBSERVATIONS ARE A COLLECTION OF AUTOMATED INSTRUMENTS
THAT ARE MAINTAINED BY A VARIETY OF FEDERAL AND STATE AGENCIES.
CERTAIN ELEMENTS...SUCH AS HUMIDITY VALUES AND SUSTAINED WIND
SPEEDS...MAY BE APPROXIMATED.





USA.gov is the U.S. government's official web portal to all federal, state and local government web resources and services.